Regional Weather Roundup
Issued by NWS Upton, NY

Current Version | Previous Version | Text Only | Print | Product List | Glossary On
Versions: 1 2 3 4 5 6 7 8 9 10 11 12 13 14 15 16 17 18 19 20 21 22 23 24 25 26 27 28 29 30 31 32 33 34 35 36 37 38 39 40 41 42 43 44 45 46 47 48 49 50
982
ASUS41 KOKX 270209
RWROKX

REGIONAL WEATHER ROUNDUP
NATIONAL WEATHER SERVICE NEW YORK NY
1000 PM EDT MON JUN 26 2017

NOTE: "FAIR" INDICATES FEW OR NO CLOUDS BELOW 12,000 FEET WITH NO
SIGNIFICANT WEATHER AND/OR OBSTRUCTIONS TO VISIBILITY.

NYZ071-072-176-178-NJZ106-104-270300-
NEW YORK CITY METRO AREA

CITY           SKY/WX    TMP DP  RH WIND       PRES   REMARKS
Central Park   CLEAR     74  46  36 CALM      30.00R
Bronx Bot Gard   N/A     66  59  77 E2        29.98R
LaGuardia APRT CLEAR     72  61  68 S8        29.97R
Kennedy INTL   PTCLDY    68  64  87 S10       30.00R
Breezy Point     N/A     64 N/A N/A S6          N/A
Newark/Liberty PTCLDY    74  46  36 SW9       29.97R
Teterboro      CLEAR     72  47  40 W7        29.97R
$$

NYZ177-179-078>081-270300-
LONG ISLAND NEW YORK

CITY           SKY/WX    TMP DP  RH WIND       PRES   REMARKS
Jones Beach      N/A     66 N/A N/A S7          N/A
Matinecock PT  NOT AVBL
Farmingdale    NOT AVBL
MacArthur/ISP  CLEAR     70  63  78 S9        29.99R
Shirley        CLEAR     68  64  87 S7        30.00S
Mt Sinai Harb    N/A    N/A N/A N/A S10         N/A
Westhampton    CLEAR     66  57  72 SW6       30.02S
East Hampton   FAIR      64  59  84 SW3       30.00S
Montauk          N/A     68  60  75 VRB6      30.01S
$$

NYZ052-065-067-270300-
HUDSON VALLEY

CITY           SKY/WX    TMP DP  RH WIND       PRES   REMARKS
White Plains   CLEAR     65  57  75 S5        29.98S
Larchmont Harb   N/A     66 N/A N/A S6          N/A
Croton O-T Hud   N/A     70 N/A N/A E1          N/A
Newburgh       CLEAR     68  52  56 SW5       29.99R
Montgomery     CLEAR     61  52  72 SW5       29.97R
Poughkeepsie   CLEAR     64  51  62 CALM      29.95S
Albany         TSTM      61  57  87 S7        30.01R FOG
$$

NJZ001-105-106-008-010-013-015-019>022-104-270300-
NEW JERSEY

CITY           SKY/WX    TMP DP  RH WIND       PRES   REMARKS
Newark/Liberty PTCLDY    74  46  36 SW9       29.97R
Teterboro      CLEAR     72  47  40 W7        29.97R
Caldwell       CLEAR     70  49  47 CALM      29.99R
Somerville     CLEAR     62  56  80 CALM      29.97R
Linden         FAIR      73  45  35 CALM      29.98S
Perth Amboy      N/A     72 N/A N/A S7          N/A
Sussex         CLEAR     60  54  80 CALM      29.99R
Andover          N/A     60  53  77 CALM      30.00R
Trenton        CLEAR     70  49  47 SW3       29.99S
Millville      CLEAR     65  59  81 CALM      30.01R
Atlantic City  CLEAR     70  54  56 S6        30.01R
Wrightstown    CLEAR     65  53  65 SW6       30.00R
Toms River     CLEAR     62  54  74 CALM      30.01R
Belmar         CLEAR     69  52  54 SW5       30.01R
$$

PAZ047>061-062-071-270300-
EASTERN PENNSYLVANIA

CITY           SKY/WX    TMP DP  RH WIND       PRES   REMARKS
Philadelphia   CLEAR     73  52  47 S5        30.00R
Allentown      CLEAR     62  50  64 SW6       29.98S
Scranton       CLOUDY    67  49  52 N12G18    30.00R
$$

CTZ002-004>006-009-010-012-RIZ004-006-007-MAZ004-011-015-270300-
SOUTHERN NEW ENGLAND
 IN CT

CITY           SKY/WX    TMP DP  RH WIND       PRES   REMARKS
Bradley INTL   PTCLDY    69  51  52 S8        29.97R
Hartford       CLEAR     69  53  56 S7        29.97R
Danbury        CLEAR     66  53  63 S6        29.99
Wtrbury/Oxford CLEAR     64  46  52 S5        30.00R
Bridgeport     CLEAR     68  58  70 W5        29.98S
Meriden        CLEAR     67  52  58 S3        29.98S
New Haven      CLEAR    N/A N/A N/A SW7       29.98F
Chester        FAIR      66  55  68 VRB6      30.00S
Groton         CLEAR     66  57  72 SW7       29.99R
Wilimantic     CLEAR     70  55  59 S3        29.99R

 IN RI

CITY           SKY/WX    TMP DP  RH WIND       PRES   REMARKS
Providence     CLEAR     66  55  67 S7        29.99R
Block Island   CLEAR     65  59  81 SW10      30.01R
Westerly       CLEAR     68  58  70 SW5       30.01R
 IN MA

CITY           SKY/WX    TMP DP  RH WIND       PRES   REMARKS
Boston         MOCLDY    70  52  52 NE6       29.98R
Worcester      CLOUDY    64  51  62 NW13      30.02R
Westfield      CLEAR     63  56  78 N7        29.99R
Provincetown   PTCLDY    65  59  81 S10       29.99S
Nantucket      CLEAR     63  62  97 SW9       30.02R
$$

ANZ330-335-338-340-345-350-353-355-270300-
COASTAL MARINE OBSERVATIONS


STATION/POSITION TIME  SKY/WX   TEMP    WIND        PRES    VSBY  WAVE
                                AIR SEA DIR/SP/G                  HT/PER
                 (UTC)          (F)     (DEG/KT/KT) (MB)    (MI)  (FT/S)
NY HARB ENTRANCE 0150            68 67  210/ 10/ 12 1015.2          2/ 3
20 S FIRE ISLAND 0150            70 70  190/ 14/ 16 1015.2          2/ 6
GREAT SOUTH BAY  0130            70 76  190/ 16/ 19   N/A
23 SSW MONTAUK P 0050            68 67              1016.1          2/ 6
15 E BARNEGAT LI 0130               65                N/A           2/ 3
HUDSON CANYON    0150            69 69  180/  8/ 10 1016.3          2/ 6
KINGS POINT      0118            69 68  200/  9/ 12 1015.0
EXECUTION ROCKS  0145            70     170/  8/ 10   N/A
CENTRAL LI SOUND NOT AVBL
EASTERN LI SOUND NOT AVBL
ROBBINS REEF     0118                   230/  7/  8 1015.6
$$


>>>>>>>>>>>>>>>>>>>>>>>>>>>> KEY <<<<<<<<<<<<<<<<<<<<<<<<<<<
>                                                          <
>     SKY/WX - Sky Condition/Present Weather               <
>     TMP    - Temperature in Fahrenheit                   <
>     DP     - Dew Point in Fahrenheit                     <
>     RH     - Relative Humidity in Percent                <
>     WIND   - Direction (from) and Speed in MPH           <
>     PRES   - Mean Sea Level Pressure (inches of Hg)      <
>     WCI    - Wind Chill Index                            <
>     VSB    - VISIBILITY IN MILES                         <
>     HX     - HEAT INDEX                                  <
>     TC     - TEMPERATURE IN CELSIUS                      <
>     VRB    - VARIABLE WIND DIRECTION                     <
>                                                          <
>>>>>>>>>>>>>>>>>>>>>>>>>>>> KEY <<<<<<<<<<<<<<<<<<<<<<<<<<<




USA.gov is the U.S. government's official web portal to all federal, state and local government web resources and services.